(146681) = 2001 VU11

Discovered at Socorro on 2001-11-10 by LINEAR.

Orbit

Orbit type: Main Belt

Note: WebGL enabled browser required.

epoch2023-02-25.0
epoch JD2460000.5
perihelion date2020-09-16.04838
perihelion JD2459108.54838
argument of perihelion (°)97.97680
ascending node (°)262.62346
inclination (°)13.59173
eccentricity0.1679894
perihelion distance (AU)2.3832672
Tisserand w.r.t. Jupiter3.2
ΔV w.r.t. Earth (km/sec)10.6
semimajor axis (AU)2.8644673
mean anomaly (°)181.33404
mean daily motion (°/day)0.20330030
aphelion distance (AU)3.346
period (years)4.85
P-vector [x]0.97244057
P-vector [y]-0.07969519
P-vector [z]0.21910731
Q-vector [x]-0.00662205
Q-vector [y]0.92994610
Q-vector [z]0.36763622
absolute magnitude15.24
phase slope0.15
uncertainty0
referenceMPO 745323
observations used995
oppositions17
arc length (days)7907
first opposition used2001
last opposition used2023
residual rms (arc-secs)0.70
perturbers coarse indicatorM-v
perturbers precise indicator003Ek
first observation date used2001-08-27.0
last observation date used2023-04-21.0
computer nameMPCLINUX
JD of orbit computation2456847.730063
perihelion JD uncertainty (days)1.6904E-04
argument of perihelion uncertainty (°)3.7425E-05
ascending node uncertainty (°)2.0027E-05
inclination uncertainty (°)8.4291E-06
eccentricity uncertainty 4.2485E-08
perihelion distance uncertainty (AU)1.3174E-07
Minimum Orbit Intersection Distances (in AU)
for orbit epoch: 2460000.5, reference: E2023-HD3
Mercury2.04169
Venus1.70031
Earth1.42573
Mars1.05584
Jupiter2.29764
Saturn6.12568
Uranus15.2332
Neptune27.2805

Observations

1017 total observations over interval: 2001 08 27.47530 – 2023 04 21.258531
These data are available for download (format description).

Date (UT) J2000 RA J2000 Dec Magn Location Ref
2001 08 27.47530 03 35 07.67 +31 27 35.5 20.3   644 – Palomar Mountain/NEAT MPS 44685
2001 08 27.48699 03 35 08.36 +31 27 38.1 20.0   644 – Palomar Mountain/NEAT MPS 44685
2001 08 27.49804 03 35 08.97 +31 27 41.0 20.1   644 – Palomar Mountain/NEAT MPS 44685
2001 10 15.32450 03 51 25.13 +32 31 48.4 19.2   704 – Lincoln Laboratory ETS, New Mexico MPS 44685
2001 10 15.34028 03 51 24.86 +32 31 45.0 19.3   704 – Lincoln Laboratory ETS, New Mexico MPS 44685
2001 10 15.35604 03 51 24.35 +32 31 42.2 20.1   704 – Lincoln Laboratory ETS, New Mexico MPS 44685
2001 10 15.37180 03 51 24.01 +32 31 39.5 19.5   704 – Lincoln Laboratory ETS, New Mexico MPS 44685
2001 10 15.38758 03 51 23.51 +32 31 38.3 19.6   704 – Lincoln Laboratory ETS, New Mexico MPS 44685
2001 11 10.36329 03 32 16.95 +30 18 49.6 18.6   704 – Lincoln Laboratory ETS, New Mexico MPS 41267
2001 11 10.37780 03 32 16.06 +30 18 42.1 18.7   704 – Lincoln Laboratory ETS, New Mexico MPS 41267
2001 11 10.39227 03 32 15.22 +30 18 35.0 18.6   704 – Lincoln Laboratory ETS, New Mexico MPS 41267
2001 11 11.28765 03 31 25.11 +30 11 37.0 19.2   704 – Lincoln Laboratory ETS, New Mexico MPS 41267
2001 11 11.29088 03 31 24.97 +30 11 35.5 18.2 R 699 – Lowell Observatory-LONEOS MPS 44685
2001 11 11.30205 03 31 24.28 +30 11 30.2 19.2   704 – Lincoln Laboratory ETS, New Mexico MPS 41267
2001 11 11.31362 03 31 23.62 +30 11 25.0   699 – Lowell Observatory-LONEOS MPS 44685
2001 11 11.31643 03 31 23.43 +30 11 23.9 19.5   704 – Lincoln Laboratory ETS, New Mexico MPS 41267
2001 11 11.33084 03 31 22.60 +30 11 16.6 18.9   704 – Lincoln Laboratory ETS, New Mexico MPS 41267
2001 11 11.33638 03 31 22.28 +30 11 14.2   699 – Lowell Observatory-LONEOS MPS 44685
2001 11 11.34524 03 31 21.76 +30 11 09.5 19.2   704 – Lincoln Laboratory ETS, New Mexico MPS 41267
2001 11 11.35918 03 31 20.96 +30 11 03.1   699 – Lowell Observatory-LONEOS MPS 44685
2001 11 19.16394 03 24 01.92 +29 05 00.6 18.7 R 699 – Lowell Observatory-LONEOS MPS 42140
2001 11 19.18107 03 24 00.96 +29 04 51.2   699 – Lowell Observatory-LONEOS MPS 42140
2001 11 19.19826 03 24 00.03 +29 04 41.8   699 – Lowell Observatory-LONEOS MPS 42140
2001 11 19.21546 03 23 59.01 +29 04 33.6   699 – Lowell Observatory-LONEOS MPS 42140
2001 11 21.22383 03 22 08.83 +28 46 18.4 18.9   704 – Lincoln Laboratory ETS, New Mexico MPS 55102
2001 11 21.25435 03 22 07.06 +28 46 01.9 19.2   704 – Lincoln Laboratory ETS, New Mexico MPS 55102
2001 11 21.27060 03 22 06.20 +28 45 52.5 18.9   704 – Lincoln Laboratory ETS, New Mexico MPS 55102
2001 11 21.28632 03 22 05.32 +28 45 44.9 19.2   704 – Lincoln Laboratory ETS, New Mexico MPS 55102
2001 11 24.21694 03 19 29.53 +28 18 27.6 19.0   704 – Lincoln Laboratory ETS, New Mexico MPS 55102
2001 11 24.23202 03 19 28.70 +28 18 19.2 19.7   704 – Lincoln Laboratory ETS, New Mexico MPS 55102
2001 11 24.24780 03 19 27.83 +28 18 10.7 19.9   704 – Lincoln Laboratory ETS, New Mexico MPS 55102
2001 11 24.26231 03 19 27.10 +28 18 01.7 19.3   704 – Lincoln Laboratory ETS, New Mexico MPS 55102
2001 11 24.27682 03 19 26.31 +28 17 53.5 19.0   704 – Lincoln Laboratory ETS, New Mexico MPS 55102
2001 12 08.10131 03 09 12.66 +26 05 54.8 19.2 R 699 – Lowell Observatory-LONEOS MPS 44685
2001 12 08.12709 03 09 11.69 +26 05 37.9   699 – Lowell Observatory-LONEOS MPS 44685
2001 12 08.15295 03 09 10.87 +26 05 25.0   699 – Lowell Observatory-LONEOS MPS 44685
2001 12 08.17887 03 09 09.87 +26 05 11.2   699 – Lowell Observatory-LONEOS MPS 44685
2001 12 10.22975 03 08 00.84 +25 46 01.3 19.1   704 – Lincoln Laboratory ETS, New Mexico MPS 44685
2001 12 10.24548 03 08 00.33 +25 45 53.6 19.1   704 – Lincoln Laboratory ETS, New Mexico MPS 44685
2001 12 10.26099 03 07 59.82 +25 45 43.9 19.6   704 – Lincoln Laboratory ETS, New Mexico MPS 44685
2001 12 10.27649 03 07 59.28 +25 45 35.2 19.2   704 – Lincoln Laboratory ETS, New Mexico MPS 44685
2001 12 10.29219 03 07 58.76 +25 45 27.7 18.5   704 – Lincoln Laboratory ETS, New Mexico MPS 44685
2001 12 17.22418 03 04 58.11 +24 43 33.2 19.1   704 – Lincoln Laboratory ETS, New Mexico MPS 44685
2001 12 17.24071 03 04 57.79 +24 43 23.9 19.7   704 – Lincoln Laboratory ETS, New Mexico MPS 44685
2001 12 17.25603 03 04 57.46 +24 43 16.1 19.5   704 – Lincoln Laboratory ETS, New Mexico MPS 44685
2001 12 17.27169 03 04 57.06 +24 43 07.7 19.5   704 – Lincoln Laboratory ETS, New Mexico MPS 44685
2001 12 17.28744 03 04 56.74 +24 42 59.9 19.8   704 – Lincoln Laboratory ETS, New Mexico MPS 44685
2001 12 20.14898 03 04 06.51 +24 19 03.3 19.2   644 – Palomar Mountain/NEAT MPS 46666
2001 12 20.16881 03 04 06.18 +24 18 53.5 19.3   644 – Palomar Mountain/NEAT MPS 46666
2001 12 20.18979 03 04 05.81 +24 18 43.5 19.4   644 – Palomar Mountain/NEAT MPS 46666
2002 01 08.15472 03 04 29.87 +22 11 19.1 19.9   704 – Lincoln Laboratory ETS, New Mexico MPS 55102
2002 01 08.16977 03 04 30.13 +22 11 14.7 20.3   704 – Lincoln Laboratory ETS, New Mexico MPS 55102
2002 01 08.18486 03 04 30.36 +22 11 10.6 20.1   704 – Lincoln Laboratory ETS, New Mexico MPS 55102
2002 01 08.20001 03 04 30.58 +22 11 05.0 20.2   704 – Lincoln Laboratory ETS, New Mexico MPS 55102
2002 01 08.21536 03 04 30.82 +22 11 01.2 20.4   704 – Lincoln Laboratory ETS, New Mexico MPS 55102
2004 04 22.56215 13 29 43.56 -26 00 33.6 20.0 R E12 – Siding Spring Survey MPS 134774
2004 04 22.57817 13 29 42.49 -26 00 24.9 18.9 R E12 – Siding Spring Survey MPS 134774
2004 04 22.59417 13 29 41.94 -26 00 20.4 20.2 R E12 – Siding Spring Survey MPS 134774
2004 04 22.61012 13 29 41.17 -26 00 15.8 20.4 R E12 – Siding Spring Survey MPS 134774
2005 05 15.42853 20 07 18.65 -14 42 28.5 19.1 R G96 – Mt. Lemmon Survey MPS 134774
2005 05 15.43646 20 07 18.81 -14 42 25.5 19.3 R G96 – Mt. Lemmon Survey MPS 134774
2005 05 15.44487 20 07 18.95 -14 42 22.0 19.5 R G96 – Mt. Lemmon Survey MPS 134774
2005 05 15.45329 20 07 19.10 -14 42 18.6 18.6 R G96 – Mt. Lemmon Survey MPS 134774
2005 06 04.40384 20 08 49.47 -12 30 39.4 19.7 V 691 – Steward Observatory, Kitt Peak-Spacewatch MPS 135580
2005 06 04.42121 20 08 49.29 -12 30 32.3 20.5 V 691 – Steward Observatory, Kitt Peak-Spacewatch MPS 135580
2005 06 04.43851 20 08 49.05 -12 30 26.5 19.5 V 691 – Steward Observatory, Kitt Peak-Spacewatch MPS 135580
2005 06 09.41410 20 07 36.25 -11 59 57.1 19.4 V 691 – Steward Observatory, Kitt Peak-Spacewatch MPS 135916
2005 06 09.43152 20 07 35.87 -11 59 50.9 20.2 V 691 – Steward Observatory, Kitt Peak-Spacewatch MPS 135916
2005 06 09.44894 20 07 35.57 -11 59 45.0 20.6 V 691 – Steward Observatory, Kitt Peak-Spacewatch MPS 135916
2005 06 13.39539 20 06 10.57 -11 36 33.1 19.5 V 691 – Steward Observatory, Kitt Peak-Spacewatch MPS 136490
2005 06 13.41279 20 06 10.11 -11 36 27.3 19.5 V 691 – Steward Observatory, Kitt Peak-Spacewatch MPS 136490
2005 06 13.43018 20 06 09.65 -11 36 21.1 19.6 V 691 – Steward Observatory, Kitt Peak-Spacewatch MPS 136490
2005 06 14.380557 20 05 45.664 -11 30 55.28 19.45 V 645 – Apache Point-Sloan Digital Sky Survey MPS 390005
2005 06 14.384029 20 05 45.569 -11 30 54.11 20.18   645 – Apache Point-Sloan Digital Sky Survey MPS 390005
2006 11 15.29620 05 09 48.39 +27 58 55.8 19.1 C 704 – Lincoln Laboratory ETS, New Mexico MPS 294243
2006 11 15.33088 05 09 46.65 +27 58 42.0 18.1 C 704 – Lincoln Laboratory ETS, New Mexico MPS 294243
2006 11 16.30976 05 08 58.64 +27 53 39.5 19.4   704 – Lincoln Laboratory ETS, New Mexico MPS 188440
2006 11 16.32168 05 08 57.92 +27 53 35.8 19.5   704 – Lincoln Laboratory ETS, New Mexico MPS 188440
2006 11 16.33342 05 08 57.38 +27 53 31.8 19.6   704 – Lincoln Laboratory ETS, New Mexico MPS 188440
2006 11 16.34515 05 08 56.72 +27 53 26.8 19.8   704 – Lincoln Laboratory ETS, New Mexico MPS 188440
2006 11 19.30643 05 06 24.24 +27 37 22.5 19.7   704 – Lincoln Laboratory ETS, New Mexico MPS 188440
2006 11 19.31874 05 06 23.56 +27 37 18.8 19.7   704 – Lincoln Laboratory ETS, New Mexico MPS 188440
2006 11 19.33127 05 06 22.79 +27 37 14.3 19.9   704 – Lincoln Laboratory ETS, New Mexico MPS 188440
2006 11 19.34360 05 06 22.17 +27 37 10.7 20.1   704 – Lincoln Laboratory ETS, New Mexico MPS 188440
2006 11 19.35593 05 06 21.54 +27 37 05.2 20.3   704 – Lincoln Laboratory ETS, New Mexico MPS 188441
